Regional Weather Roundup
Issued by NWS

Home | Current Version | Previous Version | Text Only | Print | Product List | Glossary On
Versions: 1 2 3 4 5 6 7 8 9 10 11 12 13 14 15 16 17 18 19 20 21 22 23 24 25 26 27 28 29 30 31 32 33 34 35 36 37 38 39 40 41 42 43 44 45 46 47 48 49 50
000
ASUS45 KCYS 290010
RWRWY

WYOMING REGIONAL WEATHER ROUNDUP
NATIONAL WEATHER SERVICE CHEYENNE WY
500 PM MST FRI NOV 28 2014

NOTE:  "FAIR" INDICATES FEW OR NO CLOUDS BELOW 12,000 FEET
WITH NO SIGNIFICANT WEATHER AND/OR OBSTRUCTIONS TO VISIBILITY.

WYZ001-290100-
YELLOWSTONE NATIONAL PARK

CITY           SKY/WX    TMP DP  RH WIND       PRES   REMARKS
LK YELLOWSTONE   N/A     38  14  37 VRB6      29.74F WCI  33
6HR MIN TEMP:  37; 6HR MAX TEMP:  40;

W YELLOWSTONE  NOT AVBL

$$
WYZ002>013-054>058-071-098>099-290100-
NORTHERN WYOMING

CITY           SKY/WX    TMP DP  RH WIND       PRES   REMARKS
JACKSON        CLEAR     45  18  33 S14       29.77F
CODY           MOCLDY    48  19  32 W9        29.62F
GREYBULL       MOCLDY    40  28  62 S3        29.63F
6HR MIN TEMP:  37; 6HR MAX TEMP:  49;

WORLAND        CLOUDY    44  26  49 E3        29.65F
6HR MIN TEMP:  30; 6HR MAX TEMP:  50;

SHERIDAN       MOCLDY    58  21  24 SW9G18    29.56S
6HR MIN TEMP:  56; 6HR MAX TEMP:  63;

BUFFALO        MOCLDY    55  18  23 W17G35    29.60F
6HR MIN TEMP:  50; 6HR MAX TEMP:  61;

GILLETTE       MOCLDY    52  24  33 SW24G30   29.58F
6HR MIN TEMP:  51; 6HR MAX TEMP:  57;

HULETT           N/A    N/A N/A N/A MISG        N/A
NEWCASTLE      FAIR      41  28  60 NE6       29.65S

$$
WYZ014>020-022>026-101>103-290100-
CENTRAL WYOMING

CITY           SKY/WX    TMP DP  RH WIND       PRES   REMARKS
BIG PINEY      PTCLDY    41  13  31 W15       29.88S
6HR MIN TEMP:  39; 6HR MAX TEMP:  55;

PINEDALE       CLOUDY    41  19  42 CALM      29.88F
DUBOIS         FAIR      43  10  26 NW5       29.76F
LANDER         PTCLDY    55   8  15 W14G22    29.74F
6HR MIN TEMP:  54; 6HR MAX TEMP:  64;

RIVERTON       PTCLDY    47  17  30 W15       29.76S
6HR MIN TEMP:  47; 6HR MAX TEMP:  57;

CASPER         CLOUDY    52  16  24 SW17G26   29.73F
6HR MIN TEMP:  50; 6HR MAX TEMP:  57;

DOUGLAS        MOCLDY    54  19  25 W13       29.72S
6HR MIN TEMP:  54; 6HR MAX TEMP:  63;


$$
WYZ021-027>030-104>119-290100-
SOUTHERN WYOMING

CITY           SKY/WX    TMP DP  RH WIND       PRES   REMARKS
EVANSTON       PTCLDY    44  18  35 SW15      29.92F
6HR MIN TEMP:  44; 6HR MAX TEMP:  53;

FORT BRIDGER   FAIR      51  12  20 SW22G29   29.93F
ROCK SPRINGS   CLEAR     48   9  20 W17       29.90F
6HR MIN TEMP:  46; 6HR MAX TEMP:  55;

DIXON          FAIR      46  19  33 NW5       29.99R
RAWLINS        CLEAR     48  14  25 SW23G37   29.88F
6HR MIN TEMP:  48; 6HR MAX TEMP:  54;

SARATOGA       FAIR      41  18  38 S9        29.94S
LARAMIE        PTCLDY    41  14  33 S13       29.89F
6HR MIN TEMP:  40; 6HR MAX TEMP:  54;

CHEYENNE       CLOUDY    52  13  21 SW16      29.84S
6HR MIN TEMP:  52; 6HR MAX TEMP:  60;

TORRINGTON     MOCLDY    57  15  19 W8        29.72F
6HR MIN TEMP:  57; 6HR MAX TEMP:  68;

PINE BLUFFS    FAIR      59  12  15 W22G29    29.81F

$$


USA.gov is the U.S. government's official web portal to all federal, state and local government web resources and services.